AirNav   Pilot Hours Calculator
 
 857 users online  

OR70 Pine Valley Airport
Halfway, Oregon, USA

GOING TO HALFWAY?


FAA INFORMATION EFFECTIVE 28 MARCH 2019

Location

FAA Identifier: OR70
Lat/Long: 44-51-34.5740N / 117-05-16.6170W
44-51.576233N / 117-05.276950W
44.8596039 / -117.0879492
(estimated)
Elevation: 2577 ft. / 785 m (estimated)
Variation: 18E (1985)
From city: 2 miles SE of HALFWAY, OR
Time zone: UTC -7 (UTC -8 during Standard Time)
Zip code: 97834

Airport Operations

Airport use: Private use. Permission required prior to landing
Activation date: 03/1991
Control tower: no
ARTCC: SALT LAKE CITY CENTER
FSS: MC MINNVILLE FLIGHT SERVICE STATION
Attendance: UNATNDD
Segmented circle: no

Nearby radio navigation aids

VOR radial/distance  VOR name  Freq  Var
BKEr068/30.6BAKER CITY VOR/DME115.3020E
DNJr259/37.9DONNELLY VOR/DME116.2019E

Airport Services

Runway Information

Runway 8/26

Dimensions: 2000 x 30 ft. / 610 x 9 m
Surface: gravel/dirt, in good condition
RUNWAY 8  RUNWAY 26
Traffic pattern: leftleft

Airport Ownership and Management from official FAA records

Ownership: Privately-owned
Owner: GEORGE & LYNETTE HAUPTMAN
250 EAST RECORD LN, PO BOX 893
HALFWAY, OR 97834
Phone 541-742-4110
Manager: GEORGE HAUPTMAN
250 EAST RECORD LN, PO BOX 893
HALFWAY, OR 97834
Phone 541-742-4110

Airport Operational Statistics

Aircraft based on the field: 5
Single engine airplanes: 5
    

Additional Remarks

RECOMMEND ACFT LND TO THE WEST; TKOF TO THE EAST DUE TO HIGH TRRN TO THE WEST.
DEER ON RY.

Instrument Procedures

There are no published instrument procedures at OR70.

Some nearby airports with instrument procedures:

KBKE - Baker City Municipal Airport (31 nm W)
S87 - Weiser Municipal Airport (40 nm S)
KMYL - Mc Call Municipal Airport (42 nm E)
KLGD - La Grande/Union County Airport (47 nm NW)
KONO - Ontario Municipal Airport (51 nm S)
 
Loc | Ops | Rwys | IFR | FBO | Links
Com | Nav | Svcs | Stats | Notes
Area around OR70 (Pine Valley Airport)
 
Road maps at: MapQuest Bing Google
 
Aerial photo
WARNING: Photo may not be current or correct
Aerial photo of OR70 (Pine Valley Airport)
Do you have a better or more recent aerial photo of Pine Valley Airport that you would like to share? If so, please send us your photo.

 
Sectional chart

 
Airport distance calculator
Flying to Pine Valley Airport? Find the distance to fly.

From to OR70

Sunrise and sunset
Times for 19-Apr-2019
 Local
(UTC-7)
 Zulu
(UTC)
Morning civil twilight05:2712:27
Sunrise05:5812:58
Sunset19:3702:37
Evening civil twilight20:0803:08

Current date and time
Zulu (UTC)  20-Apr-2019 01:42:05
Local (UTC-7)  19-Apr-2019 18:42:05
 
METAR
KBKE 
31nm W 
200053Z AUTO 31018G25KT 10SM BKN110 18/11 A2979 RMK AO2 LTG DSNT NE SLP081 T01830106
KMYL 
42nm E 
200051Z AUTO 17005KT 10SM CLR 16/03 A2985 RMK AO2 SLP100 T01560033
KLGD 
46nm NW 
200056Z AUTO 29008KT 10SM SCT090 BKN100 16/12 A2984 RMK AO2 LTG DSNT E TSE21RAE41 PRESRR SLP244 P0000 T01560117
TAF
KBKE 
31nm W 
191742Z 1918/2018 12008KT P6SM SCT100 FM192300 13008KT P6SM VCSH SCT080 BKN150 FM200100 33012G20KT P6SM -TSRA BKN050CB OVC100 FM200400 33010KT P6SM VCSH SCT050 BKN080 FM201100 27008KT P6SM -RA SCT025 OVC035
NOTAMs
Click for the latest NOTAMs
NOTAMs are issued by the DoD/FAA and will open in a separate window not controlled by AirNav.

 

 
 

Would you like to see your business listed on this page?

 If your business provides an interesting product or service to pilots, flight crews, aircraft, or users of the Pine Valley Airport, you should consider listing it here.  To start the listing process, click on the button below
 
Add a business
 

Other Pages about Pine Valley Airport

Update a link
 
Copyright © AirNav, LLC. All rights reserved. Privacy Policy  Contact